星链-11399 (STARLINK-11399)

导读

STARLINK-11399是美国SpaceX星链计划中的一颗卫星,于2025年2月21日发射升空。作为星链星座组网建设的一部分,它延续了星链卫星低轨道部署的特点,主要为全球范围提供高速互联网接入服务,尤其服务偏远地区、支持海上与航空移动网络连接,进一步扩充了星链星座的规模与服务覆盖能力。

基本信息
目录编号:
63063
目录名称:
STARLINK-11399
国际标识:
2025-035M
轨道中心:
EARTH
卫星名称:
星链-11399
卫星全名:
星链-11399 (STARLINK-11399)
卫星状态:
在轨 (已飞行561 天)
发射日期:
2025-02-21 UTC
国别 :
美国 (US)
星等 :
--
轨道信息
数据来源 国际轨道数据
星历时间: 2026-09-04T18:03:31+0800
1天前
查看轨道信息
半长轴: 6734.676km
偏心率: 0.0004057
轨道倾角: 43.000°
近地点辐角 292.127°
升交点赤经 17.722°
平近点角 67.917°
近地点: 353.806km
远地点: 359.272km
周期: 91.672分钟
每日圈数: 15.708249
详细信息
固有亮度:
5
最大亮度:
2.5
卫星平台:
Starlink V1.0
覆盖范围:
全球
运营商:
太空探索技术公司
运营商所在国:
美国
制造商(研发单位):
太空探索技术公司
制造商所在国:
美国
使用方式:
暂无
卫星简介
Starlink 计划是 SpaceX 推出的全球卫星互联网项目,通过发射低轨道卫星,为全球尤其是偏远地区提供高速、低延迟的互联网服务。自 2019 年起,Starlink 已部署数千颗卫星,旨在缩小全球数字鸿沟,推动互联网普及。该项目还为军事、航空等行业提供通信支持,带来广泛经济效益。
2D轨道图
3D轨道图
轨道高度分析图
轨道倾角分析图
轨道综合分析图
查看轨道综合分析图
交会数据列表
事件ID 空间交会对象 最接近时刻(TCA) 交会距离 交会风险概率(CRP) 交会风险指数(CRI) 操作
CDM_260907-214204-090506-306321
OBJECT G (40905)
2026-09-07T
21:42:23+0000
1.467 km
极远距离
5.233267E-6 低风险 0.49
CDM_260905-121706-306306-318621
2026-09-05T
12:17:22+0000
2.209 km
极远距离
1.162301E-6 低风险 0.36